Content
SEND FEEDBACK

Daily
Averages
Monthly
Summary
United States of America

JAMESTOWN, PENNSYLVANIA


Home > North America > United States > Pennsylvania
Elevation: 333 meters     Latitude: 41 30N     Longitude: 080 28W

WEATHER
 
SELECT A DAY
Number of Records: 217,299;   Date Range: 5/22/97 - 11/22/14
 
SHARE

PRINT THIS DATA

[ ← Previous Day ]
WEATHER ALMANAC - 13 FEBRUARY, 2013
[ Next Day → ]
[ °F ]   °C
Weather ElementAverageHighLow
Temperature-1.8 °C2.2 °C (1:53 pm)-5 °C (11:15 pm)
Dewpoint-5.4 °C-3.9 °C (4:53 pm)-7 °C (11:15 pm)
Humidity77.6 %88 % (10:53 pm)57 % (2:53 pm)
Barometer1009.1 hPa1013.5 hPa (12:53 am)1006.1 hPa (2:53 pm)
Wind Speed3.5 km/h11.1 km/h (12:53 pm)
Weather ElementAverage
Visibility14.3 km
Wind DirectionESE (116.1 °)

Weather ElementTotal
Precipitation---
Heating Degree Days19.7 (Base 18.3)
Averaged from 31 records on 13 February, 2013
WEATHER CONDITIONS BREAKOUT
WIND DIRECTION BREAKOUT
WEATHER BY HOUR - 13 FEBRUARY, 2013
[ °F ]   °C
Local TimeTemperatureDewpointHumidityBarometerVisibilityWind DirectionWind SpeedGust SpeedPrecipitationEventsConditions
12:53 AM-2.8 °C-5.6 °C81 %1013.5 hPa16.1 kmCalmOvercast
1:53 AM-2.2 °C-5 °C81 %1013.2 hPa16.1 kmSE (140°)5.6 km/hOvercast
2:53 AM-2.2 °C-5.6 °C78 %1012.5 hPa16.1 kmCalmOvercast
3:53 AM-2.2 °C-5.6 °C78 %1011.9 hPa16.1 kmCalmOvercast
4:53 AM-2.2 °C-5.6 °C78 %1011.5 hPa16.1 kmCalmOvercast
5:53 AM-1.7 °C-5 °C78 %1011.2 hPa16.1 kmCalmOvercast
6:53 AM-1.7 °C-5 °C78 %1010.8 hPa16.1 kmCalmOvercast
7:53 AM-2.8 °C-5.6 °C81 %1010.5 hPa11.3 kmCalmMostly Cloudy
8:53 AM-1.7 °C-4.4 °C82 %1010.2 hPa11.3 kmCalmOvercast
9:53 AM-1.1 °C-4.4 °C79 %1009.5 hPa14.5 kmNNE (30°)7.4 km/hOvercast
10:53 AM0 °C-5 °C69 %1009.8 hPa16.1 kmWSW (250°)5.6 km/hOvercast
11:30 AM1 °C-5 °C65 %1007.8 hPa16.1 kmCalmScattered Clouds
11:53 AM0.6 °C-5 °C66 %1008.8 hPa16.1 kmCalmClear
12:53 PM1.7 °C-4.4 °C64 %1007.8 hPa16.1 kmSSW (210°)11.1 km/hClear
1:53 PM2.2 °C-5 °C59 %1006.8 hPa16.1 kmVariable5.6 km/hClear
2:53 PM2.2 °C-5.6 °C57 %1006.1 hPa16.1 kmCalmClear
3:53 PM2.2 °C-5 °C59 %1006.4 hPa16.1 kmNW (310°)11.1 km/hScattered Clouds
4:53 PM0 °C-3.9 °C75 %1006.8 hPa16.1 kmNNW (340°)9.3 km/hClear
5:53 PM-1.7 °C-4.4 °C82 %1007.5 hPa16.1 kmNorth (350°)9.3 km/hPartly Cloudy
6:53 PM-2.2 °C-5 °C81 %1007.8 hPa16.1 kmNorth (350°)9.3 km/hClear
7:53 PM-2.8 °C-5.6 °C81 %1008.8 hPa16.1 kmNW (320°)5.6 km/hClear
8:41 PM-3 °C-6 °C80 %1007.5 hPa14.5 kmCalmPartly Cloudy
8:53 PM-3.3 °C-5.6 °C84 %1009.1 hPa14.5 kmWNW (300°)5.6 km/hClear
9:35 PM-4 °C-6 °C86 %1008.1 hPa12.9 kmCalmScattered Clouds
9:44 PM-4 °C-6 °C86 %1008.1 hPa12.9 kmCalmMostly Cloudy
9:53 PM-3.9 °C-6.1 °C85 %1009.8 hPa12.9 kmCalmMostly Cloudy
10:12 PM-4 °C-6 °C86 %1008.5 hPa12.9 kmWNW (300°)5.6 km/hScattered Clouds
10:20 PM-4 °C-6 °C86 %1008.5 hPa11.3 kmCalmMostly Cloudy
10:53 PM-3.9 °C-5.6 °C88 %1010.2 hPa9.7 kmWest (260°)5.6 km/hOvercast
11:15 PM-5 °C-7 °C86 %1008.8 hPa9.7 kmWSW (250°)7.4 km/hScattered Clouds
11:53 PM-5 °C-6.7 °C88 %1010.5 hPa8 kmSouth (190°)5.6 km/hClear
Hourly data recorded from KGKJ, located 0 kilometers away from Jamestown, Pennsylvania







STORIES FROM OUR PARTNERS